Flag for Germany Weather past 2 weeks in Düren, North Rhine-Westphalia, Germany

Now
57 °F

Cool.


Feels Like: 57 °F
Forecast: 54 / 63 °F
Wind: 3 mph from Southwest

Location: Noervenich

Current Time: Aug 30, 2014 at 11:20:37 PM

Latest Report: Aug 30, 2014 at 10:20 PM


Visibility: 5 mi

Pressure: 30.01 "Hg

Humidity: 94%

Dew point: 55 °F

Location of DürenLocation

Historic Weather in Düren — Graph

°F

Düren temperature yesterday

Maximum temperature yesterday: 68 °F (at 4:20 PM)
Minimum temperature yesterday: 57 °F (at 6:20 AM)
Average temperature yesterday: 63 °F

Past Weeks' High & Low Weather Summary

 TemperatureHumidityPressure
High72 °F (Aug 28, 12:20 PM)100% (Aug 20, 9:20 PM)30.12 "Hg (Aug 20, 9:20 PM)
Low45 °F (Aug 20, 6:20 AM)40% (Aug 21, 3:20 PM)29.62 "Hg (Aug 26, 4:20 AM)
Average58 °F79%29.94 "Hg
* Reported Aug 15 9:20 PM — Aug 30 9:20 PM, Düren, Weather by CustomWeather, © 2014

Note: Actual official high and low records may vary slightly from our data, if they occured in-between our weather recording intervals... More about our weather records

Advertising

Düren weather history for previous 24 hours

 ConditionsComfort  
Time TempWeatherWind HumidityBarometerVisibility
9:20 PM
Aug 30
57 °FCool.8 mph94%30.04 "Hg5 mi
8:20 PM64 °FMild.6 mph78%30.01 "HgN/A
7:20 PM64 °FPartly sunny.5 mph78%30.01 "HgN/A
6:20 PM64 °FPartly sunny.6 mph78%30.01 "HgN/A
5:20 PM66 °FPartly sunny.8 mph73%30.01 "HgN/A
4:20 PM66 °FPartly sunny.7 mph73%30.01 "HgN/A
3:20 PM66 °FSprinkles. Broken clouds.13 mph68%30.04 "HgN/A
2:20 PM68 °FBroken clouds.8 mph64%30.04 "HgN/A
1:20 PM66 °FPartly sunny.6 mph68%30.04 "HgN/A
12:20 PM61 °FSprinkles. Partly sunny.1 mph72%30.04 "HgN/A
11:20 AM61 °FCool.1 mph72%30.04 "HgN/A
10:20 AM61 °FCool.1 mph72%30.04 "HgN/A
9:20 AM61 °FCool.1 mph72%30.04 "HgN/A
8:20 AM61 °FCool.1 mph72%30.04 "HgN/A
7:20 AM61 °FCool.1 mph72%30.04 "HgN/A
6:20 AM59 °FCool.2 mph82%30.04 "HgN/A
5:20 AM59 °FPassing clouds.3 mph82%30.04 "HgN/A
4:20 AM61 °FPassing clouds.3 mph72%30.04 "HgN/A
3:20 AM59 °FPassing clouds.6 mph82%30.04 "HgN/A
2:20 AM59 °FPassing clouds.5 mph82%30.04 "HgN/A
1:20 AM61 °FPassing clouds.6 mph77%30.04 "HgN/A
12:20 AM61 °FPassing clouds.8 mph83%30.04 "HgN/A
11:20 PM
Aug 29
61 °FPartly cloudy.2 mph77%30.04 "HgN/A
Weather by CustomWeather, © 2014

See weather overviewHow to use our weather pages